RH
26 27 34 51 68 66 58 52 53 52 44 41 43 47 56 59 64 65 63 60 56 53 56 55 56 59 62 61 65 66 63 66
24 32 36 38 49 66 65 61 57 56 48 43 44 48 54 59 61 66 66 66 61 58 56 59 59 59 63 64 64 65 64 62
21 44 46 54 58 67 71 66 65 63 53 47 48 49 50 56 59 63 64 67 66 63 62 62 62 63 63 66 65 64 65 62
18 41 56 70 68 67 80 84 73 71 60 52 51 51 50 55 59 62 65 68 70 70 69 68 67 67 61 63 65 66 68 64
17 20 46 73 80 84 78 82 84 77 67 59 55 54 54 55 58 62 65 69 71 76 75 74 72 70 63 60 64 69 67 66
18 54 65 67 86 91 96 88 88 84 74 67 65 62 58 54 52 56 60 61 58 65 73 74 72 72 70 65 63 67 68 66
22 68 80 74 86 86 91 100 93 87 83 77 72 67 62 60 56 53 52 56 57 60 65 69 74 76 76 73 68 67 68 67
37 69 72 72 78 86 89 88 92 99 97 97 89 79 72 68 65 62 59 59 60 59 59 60 66 76 79 78 75 69 70 70
64 73 59 61 80 94 93 84 78 80 97 99 100 100 92 84 78 73 70 68 65 65 66 70 75 80 82 83 81 74 74 79
78 74 63 50 65 84 88 83 80 80 76 82 93 100 100 100 99 94 83 78 78 77 73 76 77 81 84 84 86 86 80 82
53 45 42 43 42 40 38 44 66 77 80 82 89 94 97 100 99 100 96 96 92 80 82 84 75 84 85 89 87 88 87 83
52 49 45 41 37 32 28 28 32 37 51 62 69 80 83 86 92 97 90 93 88 93 85 73 52 82 76 80 86 82 88 90
50 45 37 31 27 24 22 21 25 29 30 31 35 45 64 77 82 85 87 78 86 90 91 76 62 98 73 58 71 78 79 84
45 35 31 28 27 25 24 24 25 28 30 33 36 38 37 36 53 73 81 84 90 97 98 97 95 88 81 80 92 81 68 77
45 39 34 30 27 28 32 31 35 36 37 39 43 46 49 47 44 40 46 66 77 84 99 100 99 91 91 87 86 93 88 78
44 35 24 17 16 14 17 17 26 33 35 35 37 46 60 65 63 60 54 46 51 67 81 94 99 99 94 88 88 75 87 98
51 46 31 27 26 23 25 29 37 41 48 49 48 51 65 73 79 76 71 67 64 56 62 78 89 88 93 94 98 90 81 64
56 58 47 44 41 40 41 38 46 53 55 59 61 62 63 74 84 88 91 86 83 76 69 64 83 88 82 84 90 92 88 67
67 64 66 63 54 56 51 55 60 69 69 73 72 71 72 75 84 86 87 99 100 99 89 69 86 99 98 86 79 80 82 76
78 75 71 64 63 69 74 78 79 80 79 81 83 83 79 82 82 89 90 88 96 99 100 97 81 99 99 92 82 80 79 80
Wind_Speed
4 4 7 12 15 22 25 25 24 23 22 22 22 22 22 22 20 18 17 16 15 15 14 13 12 11 11 11 12 13 13 12
7 6 7 8 14 19 27 27 26 25 24 24 23 23 23 23 22 20 19 18 18 17 16 15 14 13 13 12 13 14 15 15
11 9 8 7 10 16 22 27 27 26 26 25 25 25 25 25 25 23 22 21 20 20 19 17 16 15 14 14 15 15 16 16
12 12 11 10 10 10 18 25 28 27 27 27 27 27 27 27 26 25 24 24 23 22 21 20 20 19 17 17 17 17 17 17
13 13 14 11 11 10 11 21 28 28 27 27 28 29 28 28 28 29 28 27 26 26 25 25 25 22 20 19 17 18 18 19
14 14 15 14 11 10 11 10 21 27 27 27 28 28 28 29 30 31 30 29 29 29 28 28 27 25 23 22 20 20 19 20
21 20 19 18 16 14 11 12 11 17 23 26 27 28 29 30 31 31 31 31 31 30 30 30 30 29 27 25 23 22 21 22
26 26 24 21 19 18 16 16 16 17 20 21 26 29 30 31 31 32 32 32 32 32 32 31 32 32 31 29 27 25 25 25
28 27 24 21 20 20 18 17 19 22 21 22 25 28 32 32 32 34 34 33 34 32 32 31 31 33 34 33 31 29 29 28
30 26 23 20 17 16 16 14 16 19 23 28 28 28 26 28 32 36 37 37 34 34 34 33 31 33 34 33 35 33 30 30
28 25 21 18 15 14 15 16 17 19 19 19 21 24 26 29 27 28 33 35 35 33 38 36 30 36 36 35 33 35 32 31
24 22 20 17 16 16 15 15 17 19 21 22 22 23 24 26 25 27 30 31 31 35 46 45 37 43 38 35 37 33 33 34
13 12 10 7 9 11 12 15 14 14 18 21 24 28 30 31 31 30 30 33 30 29 33 35 40 43 41 36 42 34 33 35
8 7 4 1 4 7 8 12 16 16 15 17 20 23 26 30 34 35 33 31 31 30 31 32 37 39 36 35 31 35 42 38
8 7 5 3 4 7 9 10 13 17 17 17 18 21 24 28 30 34 38 37 35 32 29 30 35 36 37 32 13 15 29 39
9 9 8 7 6 8 11 13 16 16 18 20 21 21 21 22 26 29 33 37 38 37 34 34 33 35 36 38 39 29 10 13
12 12 10 8 8 10 13 14 15 18 20 21 21 22 20 20 21 23 27 30 34 37 37 36 37 40 38 33 35 41 40 28
14 14 14 12 12 12 12 15 17 18 20 22 23 23 23 19 20 20 20 23 27 31 34 38 38 40 44 41 40 41 39 35
19 20 18 18 17 16 15 16 17 18 19 22 23 24 24 23 22 22 22 22 25 27 30 37 35 38 43 44 45 45 43 42
19 20 19 18 18 18 17 17 16 17 18 20 22 23 24 24 25 25 25 25 27 29 29 34 37 36 40 43 44 44 45 47
Wind_Direction
293 290 257 242 236 229 229 229 228 223 219 216 214 214 213 214 214 216 216 214 213 213 214 214 214 215 217 215 209 206 217 229
277 274 269 268 249 238 229 230 232 230 224 221 218 216 215 217 219 220 222 220 220 220 221 220 220 220 221 221 218 213 215 225
258 258 264 255 258 249 238 232 231 231 228 223 220 219 218 218 221 223 226 227 226 226 226 226 227 228 226 224 223 222 221 226
238 253 259 254 250 266 253 241 234 231 229 226 222 222 222 222 225 227 229 233 233 231 231 230 231 232 232 230 229 226 225 232
238 234 238 249 252 271 266 251 237 233 230 230 229 227 225 226 228 229 229 231 234 232 230 231 233 234 236 237 234 232 230 231
233 219 219 228 235 261 270 269 243 235 233 233 233 234 232 233 234 234 234 234 238 239 237 237 238 239 239 241 238 237 234 233
226 210 210 220 227 240 255 252 246 242 246 246 245 243 241 241 241 242 241 240 240 242 243 243 242 242 242 242 242 240 237 235
210 207 209 217 225 227 240 245 244 239 238 245 250 251 249 249 250 249 248 245 245 246 246 247 247 247 246 244 244 243 240 237
201 203 213 218 224 224 226 227 237 248 248 241 245 251 250 252 254 254 255 253 250 248 248 248 248 250 249 247 245 242 242 239
187 191 195 202 206 215 229 239 245 254 255 250 248 247 243 254 255 255 254 254 254 254 254 249 250 251 251 252 248 243 240 235
178 179 189 198 210 223 237 245 250 256 262 267 270 271 269 255 244 257 255 259 255 247 256 249 255 257 252 255 255 246 239 234
175 181 193 206 224 246 257 253 250 249 255 260 262 264 269 273 269 265 251 256 256 237 245 255 247 261 257 258 259 253 242 241
155 173 185 198 216 224 244 263 266 264 261 264 265 266 262 263 266 267 269 264 258 253 255 258 249 247 253 258 262 254 250 248
124 134 138 78 354 339 303 285 292 296 286 279 277 275 273 267 263 263 263 264 265 263 261 260 258 255 255 253 254 247 250 253
86 93 89 51 354 331 325 310 296 292 291 291 287 283 281 278 272 266 262 262 262 260 258 263 263 263 257 250 239 231 239 236
65 70 70 58 20 342 335 328 318 313 308 304 301 303 295 287 281 276 270 265 261 259 256 255 258 260 260 255 247 242 199 202
52 47 54 44 17 354 334 329 322 315 312 308 306 310 309 303 297 286 279 273 269 262 256 254 253 254 256 248 241 238 233 241
41 36 35 27 19 360 345 334 327 321 315 313 314 316 319 312 308 305 296 285 279 270 262 251 252 252 252 249 241 234 229 226
20 26 24 22 15 3 353 344 335 330 325 323 321 318 318 322 316 310 308 303 297 287 269 255 249 252 251 249 249 245 242 242
23 22 18 16 12 5 360 353 347 340 337 333 328 322 317 319 319 320 312 306 299 295 284 265 251 248 251 253 252 247 245 244